Location: Limerick
(52.6650°N, 8.6230°W)
Time: 10:38:19
(UTC+01:00)

ISS - Visible Passes

Search period start: 26 September 2018 00:00
Search period end: 06 October 2018 00:00
Orbit: 403 x 408 km, 51.6° (Epoch: 26 September)

Date Brightness Start Highest point End Pass type
(mag) Time Alt. Az. Time Alt. Az. Time Alt. Az.
26 Sep -3.2 20:44:45 10° SW 20:47:52 39° SSE 20:49:04 27° ESE visible
26 Sep -1.1 22:20:53 10° W 22:21:45 17° W 22:21:45 17° W visible
27 Sep -2.6 19:53:12 10° SSW 19:56:05 28° SSE 19:58:59 10° E visible
27 Sep -3.6 21:29:01 10° WSW 21:31:56 61° SW 21:31:56 61° SW visible
28 Sep -3.6 20:37:10 10° WSW 20:40:26 57° SSE 20:42:03 26° E visible
28 Sep -1.3 22:13:32 10° W 22:14:43 20° W 22:14:43 20° W visible
29 Sep -3.8 21:21:37 10° W 21:24:47 74° SSW 21:24:47 74° SSW visible
30 Sep -3.8 20:29:41 10° WSW 20:33:00 72° S 20:34:48 24° E visible
30 Sep -1.4 22:06:08 10° W 22:07:28 22° W 22:07:28 22° W visible
01 Oct -3.8 21:14:11 10° W 21:17:27 71° SSW 21:17:27 71° SSW visible
02 Oct -3.8 20:22:14 10° W 20:25:33 76° S 20:27:26 23° E visible
02 Oct -1.4 21:58:43 10° W 22:00:06 21° W 22:00:06 21° W visible
03 Oct -3.6 21:06:43 10° W 21:09:58 55° SSW 21:10:04 55° S visible
04 Oct -3.7 20:14:44 10° W 20:18:01 67° S 20:20:03 21° ESE visible
04 Oct -1.3 21:51:22 10° W 21:52:43 19° WSW 21:52:43 19° WSW visible
05 Oct -2.9 20:59:15 10° W 21:02:21 38° SSW 21:02:43 36° S visible
